Regional Weather Roundup
Issued by NWS

Home | Current Version | Previous Version | Graphics & Text | Print | Product List | Glossary On
Versions: 1 2 3 4 5 6 7 8 9 10 11 12 13 14 15 16 17 18 19 20 21 22 23 24 25 26 27 28 29 30 31 32 33 34 35 36 37 38 39 40 41 42 43 44 45 46 47 48 49 50
000
ASUS43 KOAX 250102
RWRNE

WEATHER ROUNDUP FOR NEBRASKA
NATIONAL WEATHER SERVICE OMAHA NE
700 PM CST FRI NOV 24 2017

NOTES: SATELLITE DATA IS BEING USED TO AUGMENT CLOUD COVER ABOVE
       12000 FEET.
       "FAIR" INDICATES FEW OR NO CLOUDS BELOW 12,000 FEET WITH NO
       SIGNIFICANT WEATHER AND/OR OBSTRUCTIONS TO VISIBILITY.


NEZ001>004-019>022-054>056-250200-
NEBRASKA PANHANDLE

CITY           SKY/WX    TMP DP  RH WIND       PRES   REMARKS
SCOTTSBLUFF    CLEAR     40  20  44 CALM      29.96R
ALLIANCE       CLEAR     35  25  66 NW3       29.95R
CHADRON        CLEAR     39  28  64 NE5       29.93R
GORDON         FAIR      34  25  68 W5        29.93R WCI  30
KIMBALL        CLEAR     37  28  68 NW5       30.00R WCI  34
SIDNEY         CLEAR     37  24  59 N6        29.98R WCI  32
$$

NEZ057>060-069>072-079>082-250200-
SOUTHWEST NEBRASKA

CITY           SKY/WX    TMP DP  RH WIND       PRES   REMARKS
NORTH PLATTE   CLEAR     44  28  53 NW7       29.93R
IMPERIAL       CLOUDY    50  33  52 NE8       29.95R
LEXINGTON      PTCLDY    52  32  46 N13       29.90R
MCCOOK         PTCLDY    52  37  56 N10       29.92R
OGALLALA       CLEAR     45  31  57 N8        29.94R
$$

NEZ005>010-023>029-035>040-094-250200-
NORTH CENTRAL NEBRASKA

CITY           SKY/WX    TMP DP  RH WIND       PRES   REMARKS
VALENTINE      CLEAR     43  28  55 NW8       29.91R
AINSWORTH      CLOUDY    43  30  60 NW8       29.90R
BROKEN BOW     PTCLDY    44  28  53 NW7       29.91R
O`NEILL        CLEAR     47  35  64 NW10      29.88R
ORD            CLEAR     44  29  55 NW8       29.88R
THEDFORD       CLOUDY    40  28  60 W7        29.92R
$$

NEZ041-046>049-061>064-073>077-083>087-250200-
SOUTH CENTRAL NEBRASKA

CITY           SKY/WX    TMP DP  RH WIND       PRES   REMARKS
GRAND ISLAND   PTCLDY    53  33  46 N14       29.87R
AURORA         CLOUDY    53  34  49 N12       29.86R
HASTINGS       PTCLDY    53  31  42 N13       29.87R
HEBRON         CLOUDY    59  36  41 N9        29.84R
HOLDREGE       CLEAR     50  36  57 N9        29.88R
KEARNEY        CLOUDY    52  32  46 N13       29.89R
YORK           PTCLDY    54  34  47 N10       29.85R
$$

NEZ011>018-030>034-042>045-250200-
NORTHEAST NEBRASKA

CITY           SKY/WX    TMP DP  RH WIND       PRES   REMARKS
NORFOLK        CLEAR     47  35  63 NW10      29.83R
ALBION         CLEAR     49  37  61 N8        29.85R
BLAIR          CLOUDY    54  38  55 NW16G22   29.80R
COLUMBUS       CLOUDY    52  36  54 NW10      29.85R
FREMONT        CLOUDY    52  35  52 NW13      29.83R
TEKAMAH        CLEAR     52  36  54 NW17      29.80R
WAYNE          CLEAR     44  30  59 NW7       29.84R
$$

NEZ050>053-065>068-078-088>093-250200-
SOUTHEAST NEBRASKA

CITY           SKY/WX    TMP DP  RH WIND       PRES   REMARKS
LINCOLN        MOCLDY    58  36  43 N18       29.84R
OMAHA EPPLEY   CLOUDY    56  37  49 NW21G35   29.79R
BEATRICE       PTCLDY    59  34  39 N22       29.83R
FALLS CITY     CLOUDY    58  39  49 NW12G22   29.76R
NEBRASKA CITY  CLEAR     58  37  46 N20G25    29.80R
PLATTSMOUTH    PTCLDY    57  38  49 NW26G37   29.79R
$$

NEZ044-045-051>053-067-250200-
OMAHA AREA

CITY           SKY/WX    TMP DP  RH WIND       PRES   REMARKS
OMAHA EPPLEY   CLOUDY    56  37  49 NW21G35   29.79R
BLAIR          CLOUDY    54  38  55 NW16G22   29.80R
FREMONT        CLOUDY    52  35  52 NW13      29.83R
MILLARD        CLOUDY    58  39  49 NW16G28   29.81R
OFFUTT AFB     CLOUDY    57  36  45 NW22G31   29.78R
PLATTSMOUTH    PTCLDY    57  38  49 NW26G37   29.79R
WAHOO          FAIR      54  35  49 N17       29.83R
$$




USA.gov is the U.S. government's official web portal to all federal, state and local government web resources and services.